Вернуться в каталог

STARLINK-3838

АктивенСвязьVLEO
NORAD 52352·PAYLOAD·🇺🇸 United States

Запущен Apr 29, 2022 с Cape Canaveral Space Force Station

Loading…

Ближайшие Пролёты (ближайшие 24 часа)

TLE

СвежийSource: CelesTrak SupGP

Эпоха: Sep 15, 2026, 02:02 UTC

1 52352C 22045X   26258.08520833 -.00030690  00000+0 -90701-3 0  2589
2 52352  53.1596  61.1069 0001169  83.2961  98.5119 15.34396504    11

Отслеживайте STARLINK-3838 в реальном времени с AllMySat

Download on the App Store